Back to catalog

LQSAT

AliveAmateur RadioSSO
NORAD 40958·PAYLOAD·🇨🇳 China

Launched Oct 7, 2015 from Jiuquan Satellite Launch Center

Loading…

Next Passes (next 24 hours)

TLE

FreshSource: Space-Track

Epoch: Sep 14, 2026, 13:44 UTC

1 40958U 15057A   26257.57287368  .00000355  00000-0  57362-4 0  9992
2 40958  97.6765 246.5641 0016881 347.5115  12.5675 14.76872610588500

Track LQSAT in real time with AllMySat

Download on the App Store